Weather History for Storm Lake, IA

Change the Weather History Date:

Monday, November 18, 2013

  Actual Average Record
Temperature  
Mean Temperature 35 °F -  
Max Temperature 44 °F 43 °F 71 °F (1999)
Min Temperature 26 °F 27 °F 17 °F (1996)
Degree Days  
Heating Degree Days 30    
Moisture  
Dew Point 29 °F    
Average Humidity 82    
Maximum Humidity 100    
Minimum Humidity 53    
Precipitation  
Precipitation 0.00 in - - ()
Sea Level Pressure  
Sea Level Pressure 30.13 in    
Wind  
Wind Speed 12 mph (WNW)    
Max Wind Speed 22 mph    
Max Gust Speed 24 mph    
Visibility 10 miles    
Events      
Averages and records for this station are not official NWS values.
T = Trace of Precipitation, MM = Missing Value Source: NWS Daily Summary

Daily Weather History Graph

Daily Weather History Graph

Search for Another Location

Airport:

Trip Planner

Search our weather history database for the weather conditions in past years. The results will help you decide how hot, cold, wet, or windy it might be!

Date:

Astronomy

Nov. 18, 2013 Rise Set
Actual Time 7:16 AM CST 4:55 PM CST
Civil Twilight 6:45 AM CST 5:26 PM CST
Nautical Twilight 6:11 AM CST 6:00 PM CST
Astronomical Twilight 5:38 AM CST 6:33 PM CST
Moon 5:58 PM CST (11/18) 8:06 AM CST (11/18)
Length of Visible Light 10h 40m
Length of Day
9h 39m
Full, 99% of the Moon is Illuminated
Nov 18
Full
Nov 25
Last Quarter
Dec 2
New
Dec 9
First Quarter
Dec 17
Full

Hourly Weather History & Observations

Time (CST) Temp. Windchill Dew Point Humidity Pressure Visibility Wind Dir Wind Speed Gust Speed Precip Events Conditions
12:15 AM 35.6 °F 25.2 °F 32.0 °F 87% 29.95 in 10.0 mi West 18.4 mph - N/A   Clear
12:35 AM 33.8 °F 23.2 °F 32.0 °F 93% 29.96 in 10.0 mi WNW 17.3 mph - N/A   Clear
12:55 AM 33.8 °F 21.9 °F 32.0 °F 93% 29.96 in 10.0 mi WNW 21.9 mph - N/A   Clear
1:15 AM 33.8 °F 22.8 °F 32.0 °F 93% 29.96 in 10.0 mi WNW 18.4 mph 24.2 mph N/A   Clear
1:35 AM 32.0 °F 21.2 °F 32.0 °F 100% 29.97 in 10.0 mi WNW 16.1 mph - N/A   Clear
1:55 AM 32.0 °F 21.6 °F 30.2 °F 93% 29.97 in 10.0 mi WNW 15.0 mph - N/A   Clear
2:15 AM 32.0 °F 21.6 °F 30.2 °F 93% 29.99 in 10.0 mi West 15.0 mph - N/A   Clear
2:35 AM 30.2 °F 19.8 °F 30.2 °F 100% 29.99 in 10.0 mi West 13.8 mph - N/A   Clear
2:55 AM 30.2 °F 19.3 °F 30.2 °F 100% 30.01 in 10.0 mi West 15.0 mph - N/A   Clear
3:15 AM 30.2 °F 19.8 °F 30.2 °F 100% 30.01 in 10.0 mi WNW 13.8 mph - N/A   Clear
3:35 AM 30.2 °F 19.3 °F 28.4 °F 93% 30.02 in 10.0 mi WNW 15.0 mph - N/A   Clear
3:55 AM 30.2 °F 20.2 °F 28.4 °F 93% 30.02 in 10.0 mi WNW 12.7 mph - N/A   Clear
4:15 AM 28.4 °F 18.0 °F 28.4 °F 100% 30.02 in 10.0 mi West 12.7 mph - N/A   Clear
4:35 AM 28.4 °F 18.0 °F 28.4 °F 100% 30.03 in 10.0 mi West 12.7 mph - N/A   Clear
4:55 AM 28.4 °F 17.5 °F 28.4 °F 100% 30.03 in 10.0 mi West 13.8 mph - N/A   Clear
5:15 AM 28.4 °F 17.5 °F 26.6 °F 93% 30.04 in - WNW 13.8 mph - N/A   Unknown
5:35 AM 28.4 °F 18.0 °F 26.6 °F 93% 30.05 in 10.0 mi WNW 12.7 mph - N/A   Clear
5:55 AM 28.4 °F 17.5 °F 26.6 °F 93% 30.06 in 10.0 mi WNW 13.8 mph - N/A   Clear
6:15 AM 28.4 °F 17.5 °F 26.6 °F 93% 30.07 in 10.0 mi WNW 13.8 mph - N/A   Clear
6:35 AM 26.6 °F 17.5 °F 24.8 °F 93% 30.08 in 10.0 mi WNW 9.2 mph - N/A   Clear
6:55 AM 26.6 °F 15.7 °F 24.8 °F 93% 30.09 in 10.0 mi West 12.7 mph - N/A   Clear
7:15 AM 26.6 °F 16.2 °F 24.8 °F 93% 30.10 in 10.0 mi West 11.5 mph - N/A   Clear
7:35 AM 26.6 °F 16.8 °F 24.8 °F 93% 30.11 in 10.0 mi West 10.4 mph - N/A   Clear
7:55 AM 26.6 °F 16.8 °F 26.6 °F 100% 30.12 in 10.0 mi West 10.4 mph - N/A   Clear
8:15 AM 26.6 °F 17.5 °F 26.6 °F 100% 30.13 in 10.0 mi West 9.2 mph - N/A   Clear
8:35 AM 28.4 °F 21.2 °F 28.4 °F 100% 30.15 in 10.0 mi WNW 6.9 mph - N/A   Clear
8:55 AM 30.2 °F 21.9 °F 28.4 °F 93% 30.15 in 10.0 mi NW 9.2 mph - N/A   Clear
9:15 AM 32.0 °F 23.6 °F 28.4 °F 87% 30.16 in 10.0 mi NW 10.4 mph - N/A   Clear
9:35 AM 32.0 °F 22.5 °F 28.4 °F 87% 30.17 in 10.0 mi NNW 12.7 mph - N/A   Clear
9:55 AM 33.8 °F 23.9 °F 28.4 °F 81% 30.17 in 10.0 mi NNW 15.0 mph - N/A   Clear
10:15 AM 35.6 °F 27.1 °F 28.4 °F 75% 30.18 in 10.0 mi NNW 12.7 mph 18.4 mph N/A   Clear
10:35 AM 35.6 °F 27.5 °F 30.2 °F 81% 30.18 in 10.0 mi NNW 11.5 mph - N/A   Clear
10:55 AM 37.4 °F 27.8 °F 30.2 °F 75% 30.18 in 10.0 mi NNW 17.3 mph - N/A   Clear
11:15 AM 37.4 °F 29.3 °F 30.2 °F 75% 30.19 in 10.0 mi NW 12.7 mph - N/A   Clear
11:35 AM 39.2 °F 31.6 °F 30.2 °F 70% 30.19 in 10.0 mi NW 12.7 mph - N/A   Clear
11:55 AM 39.2 °F 32.5 °F 30.2 °F 70% 30.18 in 10.0 mi NW 10.4 mph 17.3 mph N/A   Clear
12:15 PM 39.2 °F 32.5 °F 30.2 °F 70% 30.18 in 10.0 mi WNW 10.4 mph - N/A   Clear
12:35 PM 41.0 °F 33.9 °F 30.2 °F 65% 30.18 in 10.0 mi NW 12.7 mph - N/A   Clear
12:55 PM 42.8 °F 37.0 °F 30.2 °F 61% 30.18 in 10.0 mi NW 10.4 mph - N/A   Clear
1:15 PM 42.8 °F 38.0 °F 30.2 °F 61% 30.17 in 10.0 mi WNW 8.1 mph 16.1 mph N/A   Clear
1:35 PM 42.8 °F 37.5 °F 30.2 °F 61% 30.17 in 10.0 mi NW 9.2 mph - N/A   Clear
1:55 PM 42.8 °F 40.1 °F 28.4 °F 57% 30.17 in 10.0 mi Variable 4.6 mph 11.5 mph N/A   Clear
2:15 PM 44.6 °F - 28.4 °F 53% 30.17 in 10.0 mi North - - N/A   Clear
2:35 PM 44.6 °F 40.7 °F 28.4 °F 53% 30.17 in 10.0 mi NW 6.9 mph - N/A   Clear
2:55 PM 44.6 °F 39.2 °F 28.4 °F 53% 30.17 in 10.0 mi West 10.4 mph - N/A   Clear
3:15 PM 44.6 °F 40.7 °F 28.4 °F 53% 30.17 in 10.0 mi WNW 6.9 mph - N/A   Clear
3:35 PM 44.6 °F 43.1 °F 28.4 °F 53% 30.17 in 10.0 mi WNW 3.5 mph - N/A   Clear
3:55 PM 44.6 °F 43.1 °F 28.4 °F 53% 30.17 in 10.0 mi WNW 3.5 mph - N/A   Clear
4:15 PM 42.8 °F - 28.4 °F 57% 30.17 in 10.0 mi Calm Calm - N/A   Clear
4:35 PM 42.8 °F - 30.2 °F 61% 30.17 in 10.0 mi Calm Calm - N/A   Clear
4:55 PM 41.0 °F 38.0 °F 30.2 °F 65% 30.17 in 10.0 mi SSW 4.6 mph - N/A   Clear
5:15 PM 41.0 °F 39.0 °F 28.4 °F 61% 30.17 in 4.0 mi SSW 3.5 mph - N/A   Haze
5:35 PM 33.8 °F 29.6 °F 26.6 °F 75% 30.17 in 10.0 mi South 4.6 mph - N/A   Clear
5:55 PM 33.8 °F 30.8 °F 28.4 °F 81% 30.18 in 10.0 mi SSE 3.5 mph - N/A   Clear
6:15 PM 33.8 °F 29.6 °F 28.4 °F 81% 30.17 in 10.0 mi SE 4.6 mph - N/A   Clear
6:35 PM 33.8 °F 29.6 °F 28.4 °F 81% 30.17 in 10.0 mi SE 4.6 mph - N/A   Clear
6:55 PM 35.6 °F 30.7 °F 28.4 °F 75% 30.18 in 10.0 mi SSE 5.8 mph - N/A   Clear
7:15 PM 33.8 °F 30.8 °F 28.4 °F 81% 30.18 in 10.0 mi SE 3.5 mph - N/A   Clear
7:35 PM 33.8 °F 29.6 °F 28.4 °F 81% 30.19 in 10.0 mi SE 4.6 mph - N/A   Clear
7:55 PM 33.8 °F 29.6 °F 28.4 °F 81% 30.19 in 10.0 mi SE 4.6 mph - N/A   Clear
8:15 PM 32.0 °F 27.5 °F 26.6 °F 80% 30.20 in 10.0 mi ESE 4.6 mph - N/A   Clear
8:35 PM 33.8 °F 28.6 °F 28.4 °F 81% 30.20 in 8.0 mi ESE 5.8 mph - N/A   Clear
8:55 PM 30.2 °F 24.3 °F 26.6 °F 86% 30.19 in 10.0 mi ESE 5.8 mph - N/A   Clear
9:15 PM 30.2 °F 23.4 °F 26.6 °F 86% 30.19 in 10.0 mi ESE 6.9 mph - N/A   Clear
9:35 PM 32.0 °F 24.8 °F 28.4 °F 87% 30.19 in 10.0 mi SE 8.1 mph - N/A   Clear
9:55 PM 30.2 °F 22.6 °F 28.4 °F 93% 30.19 in 10.0 mi SE 8.1 mph - N/A   Clear
10:15 PM 30.2 °F 21.9 °F 26.6 °F 86% 30.19 in 10.0 mi SE 9.2 mph - N/A   Clear
10:35 PM 30.2 °F 22.6 °F 28.4 °F 93% 30.19 in 10.0 mi SE 8.1 mph - N/A   Clear
10:55 PM 30.2 °F 21.9 °F 28.4 °F 93% 30.18 in 10.0 mi SE 9.2 mph - N/A   Clear
11:15 PM 32.0 °F 23.6 °F 28.4 °F 87% 30.19 in 10.0 mi SE 10.4 mph - N/A   Clear
11:35 PM 30.2 °F 21.3 °F 28.4 °F 93% 30.18 in 10.0 mi SE 10.4 mph - N/A   Clear
11:55 PM 30.2 °F 21.3 °F 28.4 °F 93% 30.18 in 10.0 mi SE 10.4 mph - N/A   Clear